Voltar ao catálogo

STARLINK-37066

AtivoComunicaçõesVLEO
NORAD 68081·PAYLOAD·🇺🇸 United States

Lançado Mar 4, 2026 de Vandenberg Space Force Base

Loading…

Próximas Passagens (próximas 24 horas)

TLE

AtualizadoSource: CelesTrak SupGP

Época: Sep 15, 2026, 02:47 UTC

1 68081C 26042N   26258.11645833  .00047978  00000+0  14177-2 0  2585
2 68081  53.1595  13.1647 0001054  94.4091  35.4607 15.34363510    19

Acompanhe STARLINK-37066 em tempo real com AllMySat

Download on the App Store